JBU2 KJFK-KFLL

Flight info

Callsign JBU2
Flight time 2h 41m
Altitude 34000
Route SKORR6 YNKEE WAVEY EMJAY Q167 ZJAAY KALDA Q161 CHIEZ Y291 MAJIK CUUDA3
Aircraft A321/M-SDE3FGHIRWY/LB1

Departure

Time 2026-05-08 23:56
Airport John F. Kennedy International Airport (KJFK)

Arrival

Time 2026-05-09 02:37
Airport Fort Lauderdale Hollywood International Airport (KFLL)
Time Latitude Longitude Altitude Speed Heading
2026-05-08 23:14 40.64630 -73.77304 22 ft 0 kts 180°
2026-05-08 23:40 40.64631 -73.77304 22 ft 1 kts 181°
2026-05-08 23:40 40.64645 -73.77303 22 ft 2 kts 180°
2026-05-08 23:40 40.64660 -73.77303 22 ft 2 kts 181°
2026-05-08 23:41 40.64674 -73.77299 22 ft 2 kts 225°
2026-05-08 23:41 40.64680 -73.77281 22 ft 2 kts 282°
2026-05-08 23:41 40.64677 -73.77272 22 ft 1 kts 304°
2026-05-08 23:41 40.64674 -73.77268 22 ft 0 kts 299°
2026-05-08 23:43 40.64675 -73.77268 22 ft 0 kts 299°
2026-05-08 23:43 40.64695 -73.77317 22 ft 8 kts 300°
2026-05-08 23:43 40.64714 -73.77344 22 ft 0 kts 321°
2026-05-08 23:45 40.64740 -73.77358 22 ft 8 kts 355°
2026-05-08 23:45 40.64771 -73.77293 22 ft 11 kts 110°
2026-05-08 23:45 40.64724 -73.77181 22 ft 12 kts 124°
2026-05-08 23:46 40.64636 -73.77096 22 ft 14 kts 169°
2026-05-08 23:46 40.64588 -73.77087 22 ft 4 kts 175°
2026-05-08 23:46 40.64539 -73.77086 22 ft 5 kts 181°
2026-05-08 23:46 40.64527 -73.77087 22 ft 0 kts 185°
2026-05-08 23:47 40.64462 -73.77085 22 ft 11 kts 161°
2026-05-08 23:47 40.64417 -73.77000 22 ft 16 kts 110°
2026-05-08 23:47 40.64361 -73.76854 22 ft 19 kts 120°
2026-05-08 23:47 40.64302 -73.76722 22 ft 0 kts 115°
2026-05-08 23:48 40.64295 -73.76703 22 ft 10 kts 121°
2026-05-08 23:48 40.64200 -73.76666 22 ft 19 kts 202°
2026-05-08 23:48 40.64072 -73.76760 22 ft 21 kts 211°
2026-05-08 23:49 40.63950 -73.76858 22 ft 16 kts 210°
2026-05-08 23:49 40.63814 -73.76910 22 ft 23 kts 182°
2026-05-08 23:49 40.63650 -73.76914 22 ft 23 kts 181°
2026-05-08 23:49 40.63491 -73.76925 22 ft 22 kts 185°
2026-05-08 23:50 40.63334 -73.76943 22 ft 22 kts 181°
2026-05-08 23:50 40.63180 -73.76949 22 ft 21 kts 187°
2026-05-08 23:50 40.63050 -73.77007 22 ft 15 kts 209°
2026-05-08 23:50 40.62959 -73.77077 22 ft 17 kts 210°
2026-05-08 23:51 40.62907 -73.77116 22 ft 0 kts 211°
2026-05-08 23:53 40.62905 -73.77118 22 ft 3 kts 210°
2026-05-08 23:53 40.62831 -73.77197 22 ft 17 kts 255°
2026-05-08 23:53 40.62835 -73.77247 22 ft 0 kts 291°
2026-05-08 23:55 40.62848 -73.77284 22 ft 24 kts 297°
2026-05-08 23:55 40.63058 -73.77756 22 ft 92 kts 301°
2026-05-08 23:55 40.63493 -73.78722 22 ft 150 kts 301°
2026-05-08 23:56 40.64092 -73.80052 257 ft 176 kts 302°
2026-05-08 23:56 40.64687 -73.81440 709 ft 175 kts 294°
2026-05-08 23:56 40.64756 -73.83015 1083 ft 182 kts 248°
2026-05-08 23:56 40.64254 -73.83904 1362 ft 184 kts 224°
2026-05-08 23:57 40.62872 -73.85284 1877 ft 192 kts 220°
2026-05-08 23:57 40.61801 -73.86404 2140 ft 204 kts 223°
2026-05-08 23:57 40.60688 -73.87670 2436 ft 214 kts 221°
2026-05-08 23:57 40.59325 -73.88455 2398 ft 220 kts 185°
2026-05-08 23:58 40.57751 -73.88054 2500 ft 246 kts 158°
2026-05-08 23:58 40.56141 -73.87057 2529 ft 265 kts 156°
2026-05-08 23:58 40.54418 -73.86085 2516 ft 266 kts 163°
2026-05-08 23:58 40.52609 -73.85520 2562 ft 270 kts 173°
2026-05-08 23:59 40.50735 -73.85216 3099 ft 274 kts 174°
2026-05-08 23:59 40.48930 -73.84467 3952 ft 276 kts 151°
2026-05-08 23:59 40.47549 -73.82739 4687 ft 283 kts 124°
2026-05-08 23:59 40.46827 -73.80332 5291 ft 291 kts 103°
2026-05-09 00:00 40.46483 -73.77709 5924 ft 296 kts 98°
2026-05-09 00:00 40.46206 -73.74993 6552 ft 302 kts 97°
2026-05-09 00:00 40.45945 -73.72269 7193 ft 307 kts 97°
2026-05-09 00:00 40.45718 -73.69447 7777 ft 311 kts 89°
2026-05-09 00:01 40.45912 -73.66652 8429 ft 313 kts 79°
2026-05-09 00:01 40.46273 -73.63812 9150 ft 315 kts 77°
2026-05-09 00:01 40.46661 -73.60957 9753 ft 319 kts 77°
2026-05-09 00:01 40.47050 -73.58071 10313 ft 324 kts 77°
2026-05-09 00:02 40.47260 -73.55088 10596 ft 341 kts 95°
2026-05-09 00:02 40.46497 -73.52112 10868 ft 353 kts 125°
2026-05-09 00:02 40.44757 -73.49860 11147 ft 355 kts 154°
2026-05-09 00:02 40.42435 -73.48799 11422 ft 355 kts 176°
2026-05-09 00:03 40.39991 -73.48180 11701 ft 369 kts 173°
2026-05-09 00:03 40.37446 -73.47269 12133 ft 380 kts 168°
2026-05-09 00:03 40.34929 -73.46085 12655 ft 387 kts 164°
2026-05-09 00:03 40.32434 -73.44732 13145 ft 394 kts 162°
2026-05-09 00:04 40.29884 -73.43258 13581 ft 401 kts 161°
2026-05-09 00:04 40.27334 -73.41757 14053 ft 405 kts 161°
2026-05-09 00:04 40.24786 -73.40190 14578 ft 410 kts 157°
2026-05-09 00:04 40.22290 -73.38341 15185 ft 413 kts 152°
2026-05-09 00:05 40.19910 -73.36231 15716 ft 417 kts 148°
2026-05-09 00:05 40.17563 -73.34007 16201 ft 420 kts 148°
2026-05-09 00:05 40.15196 -73.31750 16680 ft 422 kts 148°
2026-05-09 00:05 40.12741 -73.29617 17129 ft 419 kts 159°
2026-05-09 00:06 40.10008 -73.28611 17542 ft 403 kts 184°
2026-05-09 00:06 40.07326 -73.29052 18012 ft 382 kts 207°
2026-05-09 00:06 40.05036 -73.30656 18486 ft 364 kts 226°
2026-05-09 00:06 40.03170 -73.32790 18933 ft 362 kts 230°
2026-05-09 00:07 40.01296 -73.34987 19380 ft 364 kts 230°
2026-05-09 00:07 39.99395 -73.37183 19877 ft 365 kts 230°
2026-05-09 00:07 39.97468 -73.39377 20332 ft 366 kts 230°
2026-05-09 00:07 39.95547 -73.41544 20749 ft 368 kts 230°
2026-05-09 00:08 39.93618 -73.43710 21167 ft 369 kts 230°
2026-05-09 00:08 39.91648 -73.45911 21586 ft 370 kts 230°
2026-05-09 00:08 39.89693 -73.48093 21923 ft 372 kts 230°
2026-05-09 00:08 39.87750 -73.50257 21973 ft 371 kts 230°
2026-05-09 00:09 39.85783 -73.52445 21976 ft 371 kts 230°
2026-05-09 00:09 39.83814 -73.54637 21978 ft 371 kts 230°
2026-05-09 00:09 39.81873 -73.56797 21982 ft 369 kts 230°
2026-05-09 00:09 39.79903 -73.58991 21981 ft 370 kts 230°
2026-05-09 00:10 39.77959 -73.61152 22024 ft 374 kts 230°
2026-05-09 00:10 39.75981 -73.63355 22415 ft 375 kts 230°
2026-05-09 00:10 39.74014 -73.65537 22865 ft 374 kts 230°
2026-05-09 00:10 39.72013 -73.67754 23288 ft 374 kts 230°
2026-05-09 00:11 39.70029 -73.69955 23666 ft 375 kts 230°
2026-05-09 00:11 39.68058 -73.72142 24024 ft 377 kts 230°
2026-05-09 00:11 39.66095 -73.74316 24353 ft 378 kts 230°
2026-05-09 00:11 39.64092 -73.76532 24662 ft 380 kts 230°
2026-05-09 00:12 39.62076 -73.78762 24961 ft 383 kts 230°
2026-05-09 00:12 39.60044 -73.81007 25284 ft 384 kts 230°
2026-05-09 00:12 39.58015 -73.83251 25597 ft 385 kts 230°
2026-05-09 00:12 39.55989 -73.85487 25922 ft 386 kts 230°
2026-05-09 00:13 39.53926 -73.87759 26245 ft 386 kts 230°
2026-05-09 00:13 39.51899 -73.89991 26550 ft 387 kts 230°
2026-05-09 00:13 39.49822 -73.92277 26871 ft 388 kts 230°
2026-05-09 00:13 39.47772 -73.94531 27150 ft 389 kts 230°
2026-05-09 00:14 39.45710 -73.96796 27401 ft 391 kts 230°
2026-05-09 00:14 39.43646 -73.99062 27656 ft 393 kts 230°
2026-05-09 00:14 39.41538 -74.01375 27916 ft 394 kts 230°
2026-05-09 00:14 39.39451 -74.03661 28156 ft 395 kts 230°
2026-05-09 00:15 39.37343 -74.05964 28405 ft 396 kts 230°
2026-05-09 00:15 39.35237 -74.08261 28647 ft 397 kts 230°
2026-05-09 00:15 39.33155 -74.10537 28870 ft 398 kts 230°
2026-05-09 00:15 39.31027 -74.12856 29155 ft 398 kts 230°
2026-05-09 00:16 39.28907 -74.15163 29469 ft 397 kts 230°
2026-05-09 00:16 39.26809 -74.17444 29780 ft 395 kts 230°
2026-05-09 00:16 39.24725 -74.19712 30090 ft 394 kts 230°
2026-05-09 00:16 39.22636 -74.21978 30372 ft 393 kts 231°
2026-05-09 00:17 39.20545 -74.24253 30632 ft 392 kts 231°
2026-05-09 00:17 39.18461 -74.26517 30906 ft 391 kts 231°
2026-05-09 00:17 39.16405 -74.28747 31195 ft 389 kts 231°
2026-05-09 00:17 39.14338 -74.30989 31465 ft 387 kts 231°
2026-05-09 00:18 39.12265 -74.33234 31727 ft 386 kts 231°
2026-05-09 00:18 39.10213 -74.35453 31971 ft 385 kts 231°
2026-05-09 00:18 39.08178 -74.37658 32225 ft 384 kts 231°
2026-05-09 00:18 39.06142 -74.39859 32454 ft 383 kts 231°
2026-05-09 00:19 39.04111 -74.42055 32629 ft 383 kts 231°
2026-05-09 00:19 39.02077 -74.44253 32818 ft 383 kts 231°
2026-05-09 00:19 39.00023 -74.46468 33006 ft 383 kts 231°
2026-05-09 00:19 38.97995 -74.48653 33131 ft 384 kts 232°
2026-05-09 00:20 38.95948 -74.50857 33262 ft 385 kts 232°
2026-05-09 00:20 38.93892 -74.53111 33461 ft 382 kts 233°
2026-05-09 00:20 38.91960 -74.55370 33695 ft 379 kts 234°
2026-05-09 00:20 38.90004 -74.57651 33857 ft 378 kts 234°
2026-05-09 00:21 38.88055 -74.59928 33974 ft 379 kts 234°
2026-05-09 00:21 38.84223 -74.64415 33994 ft 380 kts 234°
2026-05-09 00:22 38.80970 -74.68217 33986 ft 379 kts 233°
2026-05-09 00:22 38.76558 -74.73361 33999 ft 378 kts 233°
2026-05-09 00:23 38.72509 -74.77741 34006 ft 382 kts 231°
2026-05-09 00:23 38.68407 -74.82027 33998 ft 381 kts 231°
2026-05-09 00:24 38.64312 -74.86305 34005 ft 381 kts 231°
2026-05-09 00:24 38.60189 -74.90596 34290 ft 381 kts 231°
2026-05-09 00:24 38.58825 -74.92011 34450 ft 380 kts 231°
2026-05-09 00:25 38.56107 -74.94827 34768 ft 377 kts 231°
2026-05-09 00:25 38.54060 -74.96953 34969 ft 376 kts 231°
2026-05-09 00:25 38.52090 -74.99075 35191 ft 370 kts 233°
2026-05-09 00:25 38.50145 -75.01249 35372 ft 370 kts 234°
2026-05-09 00:26 38.48207 -75.03407 35481 ft 371 kts 233°
2026-05-09 00:26 38.46196 -75.05510 35638 ft 374 kts 231°
2026-05-09 00:26 38.44099 -75.07519 35838 ft 374 kts 230°
2026-05-09 00:26 38.42027 -75.09490 36006 ft 373 kts 230°
2026-05-09 00:27 38.39951 -75.11472 36009 ft 372 kts 230°
2026-05-09 00:27 38.35827 -75.15401 36018 ft 371 kts 230°
2026-05-09 00:28 38.31697 -75.19321 36018 ft 370 kts 231°
2026-05-09 00:28 38.27568 -75.23236 36017 ft 370 kts 231°
2026-05-09 00:29 38.23461 -75.27127 36023 ft 368 kts 230°
2026-05-09 00:29 38.19354 -75.31002 36020 ft 368 kts 231°
2026-05-09 00:30 38.15256 -75.34876 36027 ft 367 kts 231°
2026-05-09 00:30 38.11163 -75.38732 36025 ft 368 kts 231°
2026-05-09 00:31 38.07052 -75.42602 36027 ft 365 kts 231°
2026-05-09 00:31 38.02924 -75.46369 36030 ft 369 kts 229°
2026-05-09 00:32 37.98702 -75.50026 36022 ft 370 kts 229°
2026-05-09 00:32 37.94471 -75.53702 36025 ft 368 kts 230°
2026-05-09 00:33 37.90206 -75.57344 36030 ft 372 kts 227°
2026-05-09 00:33 37.86432 -75.60091 36029 ft 377 kts 223°
2026-05-09 00:34 37.81902 -75.62798 36019 ft 388 kts 219°
2026-05-09 00:34 37.75880 -75.65515 36035 ft 400 kts 213°
2026-05-09 00:35 37.70463 -75.67442 36031 ft 402 kts 212°
2026-05-09 00:35 37.65187 -75.69307 36039 ft 402 kts 212°
2026-05-09 00:36 37.60210 -75.71062 36031 ft 400 kts 212°
2026-05-09 00:36 37.55099 -75.72856 36035 ft 399 kts 213°
2026-05-09 00:37 37.49853 -75.74693 36042 ft 401 kts 213°
2026-05-09 00:37 37.44443 -75.76588 36040 ft 400 kts 213°
2026-05-09 00:38 37.39084 -75.78457 36043 ft 398 kts 213°
2026-05-09 00:38 37.33796 -75.80296 36038 ft 399 kts 213°
2026-05-09 00:39 37.28450 -75.82160 36041 ft 396 kts 213°
2026-05-09 00:39 37.23093 -75.84026 36042 ft 398 kts 213°
2026-05-09 00:40 37.17738 -75.85885 36046 ft 400 kts 213°
2026-05-09 00:40 37.12439 -75.87834 36050 ft 390 kts 216°
2026-05-09 00:41 37.05093 -75.91670 36055 ft 374 kts 224°
2026-05-09 00:41 37.00585 -75.94738 36050 ft 368 kts 225°
2026-05-09 00:42 36.96093 -75.97838 36054 ft 367 kts 225°
2026-05-09 00:42 36.91618 -76.00927 36058 ft 364 kts 225°
2026-05-09 00:43 36.87158 -76.04010 36053 ft 366 kts 225°
2026-05-09 00:43 36.82723 -76.07075 36053 ft 367 kts 226°
2026-05-09 00:44 36.78258 -76.10162 36054 ft 367 kts 225°
2026-05-09 00:44 36.73782 -76.13249 36057 ft 366 kts 225°
2026-05-09 00:45 36.69328 -76.16312 36057 ft 365 kts 225°
2026-05-09 00:45 36.64867 -76.19377 36053 ft 367 kts 225°
2026-05-09 00:46 36.60411 -76.22441 36058 ft 365 kts 225°
2026-05-09 00:46 36.55948 -76.25505 36058 ft 367 kts 225°
2026-05-09 00:47 36.51522 -76.28541 36060 ft 366 kts 225°
2026-05-09 00:47 36.47056 -76.31595 36059 ft 365 kts 224°
2026-05-09 00:48 36.42596 -76.34640 36064 ft 365 kts 224°
2026-05-09 00:48 36.38146 -76.37679 36058 ft 366 kts 224°
2026-05-09 00:49 36.33678 -76.40726 36060 ft 364 kts 224°
2026-05-09 00:49 36.29252 -76.43735 36058 ft 365 kts 225°
2026-05-09 00:50 36.24781 -76.46779 36059 ft 367 kts 225°
2026-05-09 00:50 36.20301 -76.49824 36057 ft 366 kts 224°
2026-05-09 00:51 36.15836 -76.52843 36059 ft 367 kts 224°
2026-05-09 00:51 36.11358 -76.55881 36064 ft 365 kts 224°
2026-05-09 00:52 36.06924 -76.58875 36066 ft 360 kts 224°
2026-05-09 00:52 36.02539 -76.61835 36062 ft 363 kts 224°
2026-05-09 00:53 35.98094 -76.64841 36063 ft 361 kts 224°
2026-05-09 00:53 35.93643 -76.67840 36066 ft 365 kts 223°
2026-05-09 00:54 35.89119 -76.70775 36062 ft 371 kts 221°
2026-05-09 00:54 35.84493 -76.73609 36064 ft 370 kts 223°
2026-05-09 00:55 35.79875 -76.76434 36057 ft 372 kts 221°
2026-05-09 00:55 35.75251 -76.79252 36060 ft 372 kts 221°
2026-05-09 00:56 35.70643 -76.82075 36065 ft 370 kts 221°
2026-05-09 00:56 35.65998 -76.84898 36066 ft 374 kts 221°
2026-05-09 00:57 35.61425 -76.87674 36060 ft 375 kts 220°
2026-05-09 00:57 35.56762 -76.90509 36067 ft 377 kts 221°
2026-05-09 00:58 35.52067 -76.93387 36075 ft 376 kts 221°
2026-05-09 00:58 35.47409 -76.96236 36072 ft 374 kts 222°
2026-05-09 00:59 35.42737 -76.99104 36075 ft 376 kts 221°
2026-05-09 00:59 35.38035 -77.01978 36072 ft 378 kts 221°
2026-05-09 01:00 35.33318 -77.04866 36075 ft 380 kts 220°
2026-05-09 01:00 35.28599 -77.07733 36073 ft 380 kts 221°
2026-05-09 01:01 35.23845 -77.10634 36078 ft 380 kts 221°
2026-05-09 01:01 35.19124 -77.13496 36076 ft 381 kts 221°
2026-05-09 01:02 35.14376 -77.16390 36088 ft 380 kts 220°
2026-05-09 01:02 35.09653 -77.19248 36086 ft 382 kts 221°
2026-05-09 01:03 35.04903 -77.22129 36082 ft 383 kts 221°
2026-05-09 01:03 35.00088 -77.25047 36077 ft 387 kts 220°
2026-05-09 01:04 34.95287 -77.27947 36077 ft 385 kts 220°
2026-05-09 01:04 34.90451 -77.30866 36072 ft 387 kts 220°
2026-05-09 01:05 34.85648 -77.33759 36068 ft 386 kts 221°
2026-05-09 01:06 34.78431 -77.38097 36071 ft 387 kts 221°
2026-05-09 01:06 34.73583 -77.41016 36069 ft 388 kts 220°
2026-05-09 01:07 34.68724 -77.43929 36069 ft 390 kts 220°
2026-05-09 01:07 34.63866 -77.46844 36068 ft 387 kts 220°
2026-05-09 01:08 34.59027 -77.49738 36072 ft 389 kts 220°
2026-05-09 01:08 34.53979 -77.52397 36067 ft 401 kts 215°
2026-05-09 01:09 34.48636 -77.54488 36064 ft 409 kts 210°
2026-05-09 01:09 34.43046 -77.55962 36064 ft 417 kts 205°
2026-05-09 01:10 34.37350 -77.57230 36058 ft 418 kts 205°
2026-05-09 01:10 34.31618 -77.58504 36061 ft 419 kts 205°
2026-05-09 01:11 34.25914 -77.59759 36059 ft 420 kts 205°
2026-05-09 01:11 34.20141 -77.61034 36062 ft 420 kts 205°
2026-05-09 01:12 34.14411 -77.62291 36057 ft 417 kts 205°
2026-05-09 01:12 34.08687 -77.63547 36057 ft 420 kts 204°
2026-05-09 01:13 34.03000 -77.64794 36058 ft 416 kts 204°
2026-05-09 01:13 33.97217 -77.66063 36060 ft 420 kts 204°
2026-05-09 01:14 33.91468 -77.67322 36051 ft 422 kts 204°
2026-05-09 01:14 33.85709 -77.68578 36055 ft 421 kts 204°
2026-05-09 01:15 33.79953 -77.69833 36047 ft 420 kts 203°
2026-05-09 01:15 33.74176 -77.71091 36047 ft 422 kts 204°
2026-05-09 01:16 33.68440 -77.72411 36047 ft 415 kts 206°
2026-05-09 01:16 33.62861 -77.74171 36044 ft 413 kts 208°
2026-05-09 01:17 33.54551 -77.76881 36052 ft 413 kts 208°
2026-05-09 01:17 33.49010 -77.78687 36047 ft 413 kts 208°
2026-05-09 01:18 33.43447 -77.80502 36047 ft 414 kts 208°
2026-05-09 01:18 33.37868 -77.82320 36044 ft 414 kts 208°
2026-05-09 01:19 33.32307 -77.84129 36040 ft 416 kts 207°
2026-05-09 01:19 33.26709 -77.85946 36040 ft 415 kts 208°
2026-05-09 01:20 33.21138 -77.87753 36042 ft 416 kts 207°
2026-05-09 01:20 33.15584 -77.89550 36035 ft 413 kts 207°
2026-05-09 01:21 33.10010 -77.91357 36035 ft 417 kts 207°
2026-05-09 01:21 33.04417 -77.93164 36041 ft 416 kts 207°
2026-05-09 01:22 32.98870 -77.95044 36031 ft 415 kts 208°
2026-05-09 01:22 32.93346 -77.96944 36032 ft 414 kts 208°
2026-05-09 01:23 32.87788 -77.98850 36034 ft 414 kts 208°
2026-05-09 01:23 32.82252 -78.00738 36038 ft 414 kts 208°
2026-05-09 01:24 32.76682 -78.02643 36024 ft 414 kts 208°
2026-05-09 01:24 32.71114 -78.04537 36030 ft 417 kts 208°
2026-05-09 01:25 32.65547 -78.06430 36041 ft 418 kts 208°
2026-05-09 01:25 32.59958 -78.08323 36035 ft 417 kts 208°
2026-05-09 01:26 32.54375 -78.10214 36032 ft 418 kts 208°
2026-05-09 01:26 32.48796 -78.12104 36039 ft 416 kts 208°
2026-05-09 01:27 32.43194 -78.13997 36029 ft 417 kts 208°
2026-05-09 01:27 32.37601 -78.15890 36032 ft 419 kts 207°
2026-05-09 01:28 32.32002 -78.17777 36036 ft 420 kts 207°
2026-05-09 01:28 32.26392 -78.19668 36034 ft 419 kts 207°
2026-05-09 01:29 32.20759 -78.21561 36035 ft 419 kts 207°
2026-05-09 01:29 32.15154 -78.23446 36038 ft 419 kts 207°
2026-05-09 01:30 32.09531 -78.25334 36031 ft 419 kts 207°
2026-05-09 01:30 32.03927 -78.27212 36034 ft 419 kts 207°
2026-05-09 01:31 31.98286 -78.29101 36029 ft 420 kts 207°
2026-05-09 01:31 31.92669 -78.30980 36032 ft 421 kts 207°
2026-05-09 01:32 31.87025 -78.32864 36037 ft 420 kts 207°
2026-05-09 01:32 31.81383 -78.34744 36035 ft 421 kts 207°
2026-05-09 01:33 31.75758 -78.36617 36024 ft 421 kts 207°
2026-05-09 01:33 31.70135 -78.38487 36028 ft 420 kts 207°
2026-05-09 01:34 31.64484 -78.40366 36042 ft 421 kts 207°
2026-05-09 01:34 31.58856 -78.42236 36025 ft 422 kts 207°
2026-05-09 01:35 31.53200 -78.44111 36035 ft 424 kts 207°
2026-05-09 01:35 31.47517 -78.45963 36031 ft 422 kts 207°
2026-05-09 01:36 31.41870 -78.47795 36029 ft 421 kts 207°
2026-05-09 01:36 31.36238 -78.49617 36033 ft 422 kts 207°
2026-05-09 01:37 31.30561 -78.51454 36041 ft 422 kts 207°
2026-05-09 01:37 31.24899 -78.53284 36038 ft 423 kts 207°
2026-05-09 01:38 31.19225 -78.55119 36035 ft 424 kts 207°
2026-05-09 01:38 31.13538 -78.56953 36032 ft 423 kts 207°
2026-05-09 01:39 31.07860 -78.58781 36037 ft 422 kts 207°
2026-05-09 01:39 31.02181 -78.60609 36034 ft 423 kts 207°
2026-05-09 01:40 30.96476 -78.62446 36039 ft 423 kts 206°
2026-05-09 01:40 30.90780 -78.64273 36039 ft 424 kts 207°
2026-05-09 01:41 30.85082 -78.66099 36033 ft 424 kts 206°
2026-05-09 01:41 30.79393 -78.67924 36031 ft 425 kts 206°
2026-05-09 01:42 30.73667 -78.69756 36035 ft 426 kts 206°
2026-05-09 01:42 30.67949 -78.71580 36033 ft 426 kts 206°
2026-05-09 01:43 30.62232 -78.73404 36030 ft 425 kts 206°
2026-05-09 01:43 30.56537 -78.75220 36025 ft 425 kts 206°
2026-05-09 01:44 30.50813 -78.77043 36028 ft 427 kts 206°
2026-05-09 01:44 30.45087 -78.78863 36025 ft 426 kts 206°
2026-05-09 01:45 30.39343 -78.80688 36024 ft 428 kts 205°
2026-05-09 01:45 30.33573 -78.82519 36028 ft 430 kts 206°
2026-05-09 01:46 30.27808 -78.84345 36023 ft 428 kts 206°
2026-05-09 01:46 30.22078 -78.86159 36031 ft 429 kts 205°
2026-05-09 01:47 30.16290 -78.87988 36031 ft 431 kts 205°
2026-05-09 01:47 30.10467 -78.89822 36033 ft 431 kts 205°
2026-05-09 01:48 30.04694 -78.91642 36034 ft 431 kts 205°
2026-05-09 01:48 29.98896 -78.93471 36032 ft 432 kts 205°
2026-05-09 01:49 29.93127 -78.95286 36034 ft 431 kts 205°
2026-05-09 01:49 29.87307 -78.97114 36036 ft 431 kts 205°
2026-05-09 01:50 29.81465 -78.98895 36034 ft 435 kts 202°
2026-05-09 01:50 29.75410 -79.00166 36033 ft 441 kts 199°
2026-05-09 01:51 29.69367 -79.01282 36028 ft 441 kts 199°
2026-05-09 01:51 29.63291 -79.02402 36021 ft 442 kts 199°
2026-05-09 01:52 29.57231 -79.03519 36016 ft 441 kts 199°
2026-05-09 01:52 29.51152 -79.04640 36017 ft 441 kts 199°
2026-05-09 01:53 29.45061 -79.05760 36014 ft 442 kts 199°
2026-05-09 01:53 29.38956 -79.06883 36015 ft 444 kts 199°
2026-05-09 01:54 29.32873 -79.07999 36017 ft 443 kts 199°
2026-05-09 01:54 29.26765 -79.09121 36016 ft 443 kts 199°
2026-05-09 01:55 29.20685 -79.10233 36015 ft 443 kts 199°
2026-05-09 01:55 29.14566 -79.11352 36017 ft 444 kts 199°
2026-05-09 01:56 29.08437 -79.12473 36016 ft 446 kts 198°
2026-05-09 01:56 29.02299 -79.13593 36015 ft 446 kts 198°
2026-05-09 01:57 28.96165 -79.14711 36015 ft 445 kts 198°
2026-05-09 01:57 28.90056 -79.15823 36016 ft 445 kts 198°
2026-05-09 01:58 28.83911 -79.16940 36012 ft 446 kts 198°
2026-05-09 01:58 28.77796 -79.18050 36015 ft 446 kts 198°
2026-05-09 01:59 28.71619 -79.19172 36014 ft 446 kts 198°
2026-05-09 01:59 28.65492 -79.20282 36013 ft 448 kts 198°
2026-05-09 02:00 28.59325 -79.21397 36014 ft 447 kts 198°
2026-05-09 02:00 28.53144 -79.22517 36015 ft 448 kts 198°
2026-05-09 02:01 28.47008 -79.23624 36014 ft 448 kts 198°
2026-05-09 02:01 28.40841 -79.24738 36014 ft 448 kts 198°
2026-05-09 02:02 28.34658 -79.25868 36013 ft 447 kts 199°
2026-05-09 02:02 28.28676 -79.27468 36015 ft 441 kts 204°
2026-05-09 02:03 28.22781 -79.29383 36013 ft 441 kts 204°
2026-05-09 02:03 28.16837 -79.31315 36014 ft 442 kts 204°
2026-05-09 02:04 28.10947 -79.33225 36016 ft 441 kts 205°
2026-05-09 02:04 28.05035 -79.35140 36014 ft 442 kts 204°
2026-05-09 02:05 27.99090 -79.37062 36016 ft 443 kts 205°
2026-05-09 02:05 27.93178 -79.38975 36012 ft 444 kts 204°
2026-05-09 02:06 27.90193 -79.39939 35886 ft 444 kts 204°
2026-05-09 02:06 27.87202 -79.40903 35526 ft 442 kts 204°
2026-05-09 02:06 27.84241 -79.41854 35027 ft 439 kts 204°
2026-05-09 02:07 27.78434 -79.43719 33822 ft 435 kts 204°
2026-05-09 02:07 27.75502 -79.44666 33106 ft 435 kts 204°
2026-05-09 02:07 27.72590 -79.45603 32459 ft 435 kts 204°
2026-05-09 02:07 27.69664 -79.46545 31798 ft 435 kts 204°
2026-05-09 02:08 27.66764 -79.47477 31110 ft 436 kts 204°
2026-05-09 02:08 27.63833 -79.48420 30397 ft 438 kts 204°
2026-05-09 02:08 27.60851 -79.49379 29641 ft 439 kts 203°
2026-05-09 02:08 27.57911 -79.50324 28910 ft 441 kts 203°
2026-05-09 02:09 27.54962 -79.51267 28314 ft 438 kts 203°
2026-05-09 02:09 27.52055 -79.52195 27853 ft 433 kts 203°
2026-05-09 02:09 27.49174 -79.53115 27365 ft 428 kts 203°
2026-05-09 02:09 27.46341 -79.54022 26884 ft 424 kts 203°
2026-05-09 02:10 27.43504 -79.54927 26673 ft 412 kts 203°
2026-05-09 02:10 27.40771 -79.55797 26491 ft 401 kts 203°
2026-05-09 02:10 27.38110 -79.56639 26049 ft 397 kts 203°
2026-05-09 02:10 27.35455 -79.57479 25572 ft 394 kts 203°
2026-05-09 02:11 27.32821 -79.58309 25115 ft 390 kts 203°
2026-05-09 02:11 27.30237 -79.59124 24662 ft 387 kts 203°
2026-05-09 02:11 27.27633 -79.59946 24194 ft 384 kts 202°
2026-05-09 02:11 27.25064 -79.60755 23748 ft 381 kts 202°
2026-05-09 02:12 27.22552 -79.61546 23298 ft 378 kts 202°
2026-05-09 02:12 27.20016 -79.62344 22856 ft 375 kts 202°
2026-05-09 02:12 27.17517 -79.63134 22405 ft 372 kts 202°
2026-05-09 02:12 27.15029 -79.63930 21961 ft 369 kts 202°
2026-05-09 02:13 27.12589 -79.64713 21528 ft 366 kts 202°
2026-05-09 02:13 27.10128 -79.65503 21084 ft 364 kts 201°
2026-05-09 02:13 27.07703 -79.66281 20632 ft 363 kts 201°
2026-05-09 02:13 27.05257 -79.67065 20184 ft 362 kts 201°
2026-05-09 02:14 27.02828 -79.67841 19730 ft 360 kts 201°
2026-05-09 02:14 27.00440 -79.68607 19273 ft 359 kts 200°
2026-05-09 02:14 26.98036 -79.69375 18815 ft 359 kts 200°
2026-05-09 02:14 26.95622 -79.70145 18365 ft 357 kts 200°
2026-05-09 02:15 26.93219 -79.70912 17907 ft 356 kts 199°
2026-05-09 02:15 26.90861 -79.71665 17460 ft 355 kts 199°
2026-05-09 02:15 26.88453 -79.72433 17014 ft 353 kts 199°
2026-05-09 02:15 26.86226 -79.73142 16598 ft 352 kts 199°
2026-05-09 02:16 26.83874 -79.73890 16268 ft 346 kts 199°
2026-05-09 02:16 26.81579 -79.74618 15992 ft 339 kts 199°
2026-05-09 02:16 26.79310 -79.75337 15603 ft 337 kts 198°
2026-05-09 02:16 26.77055 -79.76051 15174 ft 335 kts 198°
2026-05-09 02:17 26.74812 -79.76759 14750 ft 334 kts 198°
2026-05-09 02:17 26.72571 -79.77467 14324 ft 333 kts 198°
2026-05-09 02:17 26.70375 -79.78172 13905 ft 331 kts 199°
2026-05-09 02:17 26.68204 -79.79007 13478 ft 330 kts 201°
2026-05-09 02:18 26.66026 -79.79892 13050 ft 328 kts 201°
2026-05-09 02:18 26.63893 -79.80764 12630 ft 327 kts 201°
2026-05-09 02:18 26.61750 -79.81640 12200 ft 326 kts 201°
2026-05-09 02:18 26.59626 -79.82507 11778 ft 325 kts 201°
2026-05-09 02:19 26.57517 -79.83367 11353 ft 324 kts 200°
2026-05-09 02:19 26.55411 -79.84236 11133 ft 315 kts 202°
2026-05-09 02:19 26.53389 -79.85169 10811 ft 312 kts 203°
2026-05-09 02:19 26.51418 -79.86095 10528 ft 307 kts 203°
2026-05-09 02:20 26.49460 -79.87018 10193 ft 297 kts 203°
2026-05-09 02:20 26.47587 -79.87901 9917 ft 286 kts 203°
2026-05-09 02:20 26.45763 -79.88760 9505 ft 288 kts 203°
2026-05-09 02:20 26.43911 -79.89631 9111 ft 288 kts 203°
2026-05-09 02:21 26.42066 -79.90496 8727 ft 288 kts 203°
2026-05-09 02:21 26.40210 -79.91367 8355 ft 288 kts 203°
2026-05-09 02:21 26.38414 -79.92256 8033 ft 281 kts 206°
2026-05-09 02:21 26.36678 -79.93304 7978 ft 280 kts 210°
2026-05-09 02:22 26.34989 -79.94385 7975 ft 281 kts 210°
2026-05-09 02:22 26.33286 -79.95482 7975 ft 281 kts 210°
2026-05-09 02:22 26.31600 -79.96568 7972 ft 281 kts 210°
2026-05-09 02:22 26.29896 -79.97662 7971 ft 281 kts 210°
2026-05-09 02:23 26.28182 -79.98762 7971 ft 282 kts 210°
2026-05-09 02:23 26.26484 -79.99852 7972 ft 281 kts 210°
2026-05-09 02:23 26.24787 -80.00942 7972 ft 281 kts 210°
2026-05-09 02:23 26.23096 -80.02029 7973 ft 281 kts 210°
2026-05-09 02:24 26.21389 -80.03126 7974 ft 281 kts 210°
2026-05-09 02:24 26.19709 -80.04206 7974 ft 281 kts 211°
2026-05-09 02:24 26.18186 -80.05595 7961 ft 281 kts 232°
2026-05-09 02:24 26.17284 -80.07503 7974 ft 282 kts 250°
2026-05-09 02:25 26.16675 -80.09570 7974 ft 282 kts 251°
2026-05-09 02:25 26.16072 -80.11668 7975 ft 283 kts 251°
2026-05-09 02:25 26.15471 -80.13752 7977 ft 283 kts 253°
2026-05-09 02:25 26.15080 -80.15897 7980 ft 284 kts 262°
2026-05-09 02:26 26.14986 -80.18094 7983 ft 285 kts 269°
2026-05-09 02:26 26.14996 -80.20301 7780 ft 287 kts 270°
2026-05-09 02:26 26.15020 -80.22520 7378 ft 288 kts 270°
2026-05-09 02:26 26.15040 -80.24709 6994 ft 282 kts 270°
2026-05-09 02:27 26.15055 -80.26901 6622 ft 282 kts 270°
2026-05-09 02:27 26.15066 -80.29096 6249 ft 283 kts 271°
2026-05-09 02:27 26.15076 -80.31271 5883 ft 284 kts 271°
2026-05-09 02:27 26.15086 -80.33476 5517 ft 284 kts 271°
2026-05-09 02:28 26.15085 -80.35653 5207 ft 281 kts 270°
2026-05-09 02:28 26.15049 -80.37819 4909 ft 278 kts 269°
2026-05-09 02:28 26.15005 -80.39942 4669 ft 273 kts 269°
2026-05-09 02:28 26.14960 -80.42030 4326 ft 266 kts 269°
2026-05-09 02:29 26.14917 -80.44044 3962 ft 259 kts 269°
2026-05-09 02:29 26.14852 -80.46018 3635 ft 250 kts 262°
2026-05-09 02:29 26.14214 -80.47733 3458 ft 235 kts 224°
2026-05-09 02:29 26.12867 -80.48633 3345 ft 225 kts 193°
2026-05-09 02:30 26.11342 -80.48752 3228 ft 220 kts 168°
2026-05-09 02:30 26.09915 -80.48165 3107 ft 216 kts 144°
2026-05-09 02:30 26.08857 -80.46998 2986 ft 213 kts 122°
2026-05-09 02:30 26.08220 -80.45536 2874 ft 212 kts 108°
2026-05-09 02:31 26.07902 -80.43940 2757 ft 211 kts 97°
2026-05-09 02:31 26.07820 -80.42300 2661 ft 207 kts 91°
2026-05-09 02:31 26.07830 -80.40762 2617 ft 193 kts 90°
2026-05-09 02:31 26.07844 -80.39324 2479 ft 183 kts 90°
2026-05-09 02:32 26.07848 -80.37941 2338 ft 172 kts 91°
2026-05-09 02:32 26.07844 -80.36667 2185 ft 156 kts 91°
2026-05-09 02:32 26.07837 -80.35496 2047 ft 150 kts 91°
2026-05-09 02:32 26.07826 -80.34337 1928 ft 149 kts 91°
2026-05-09 02:33 26.07815 -80.33186 1843 ft 149 kts 91°
2026-05-09 02:33 26.07805 -80.32040 1797 ft 149 kts 91°
2026-05-09 02:33 26.07795 -80.30875 1794 ft 149 kts 91°
2026-05-09 02:33 26.07785 -80.29723 1789 ft 149 kts 91°
2026-05-09 02:34 26.07775 -80.28578 1787 ft 149 kts 91°
2026-05-09 02:34 26.07767 -80.27419 1788 ft 149 kts 91°
2026-05-09 02:34 26.07759 -80.26260 1649 ft 150 kts 91°
2026-05-09 02:34 26.07750 -80.25111 1464 ft 149 kts 91°
2026-05-09 02:35 26.07743 -80.23973 1275 ft 144 kts 91°
2026-05-09 02:35 26.07735 -80.22877 1096 ft 142 kts 91°
2026-05-09 02:35 26.07728 -80.21778 920 ft 141 kts 91°
2026-05-09 02:35 26.07721 -80.20689 742 ft 141 kts 91°
2026-05-09 02:36 26.07714 -80.19596 561 ft 141 kts 91°
2026-05-09 02:36 26.07707 -80.18507 380 ft 140 kts 91°
2026-05-09 02:36 26.07700 -80.17426 200 ft 139 kts 91°
2026-05-09 02:36 26.07692 -80.16348 42 ft 138 kts 91°
2026-05-09 02:37 26.07690 -80.15341 13 ft 111 kts 90°
2026-05-09 02:37 26.07686 -80.14674 13 ft 61 kts 90°
2026-05-09 02:37 26.07644 -80.14445 13 ft 22 kts 116°
2026-05-09 02:37 26.07640 -80.14434 13 ft 0 kts 116°
2026-05-09 02:38 26.07638 -80.14432 13 ft 0 kts 116°
2026-05-09 02:38 26.07638 -80.14431 13 ft 0 kts 116°
2026-05-09 02:38 26.07638 -80.14430 13 ft 0 kts 116°
2026-05-09 02:39 26.07637 -80.14428 13 ft 0 kts 116°
2026-05-09 02:39 26.07619 -80.14408 13 ft 8 kts 150°
2026-05-09 02:40 26.07569 -80.14436 13 ft 9 kts 250°
2026-05-09 02:40 26.07563 -80.14514 13 ft 12 kts 267°
2026-05-09 02:40 26.07560 -80.14631 13 ft 15 kts 270°
2026-05-09 02:40 26.07533 -80.14733 13 ft 5 kts 222°
2026-05-09 02:41 26.07516 -80.14748 13 ft 6 kts 217°
2026-05-09 02:41 26.07440 -80.14821 13 ft 16 kts 222°
2026-05-09 02:41 26.07391 -80.14909 13 ft 0 kts 266°
2026-05-09 02:42 26.07380 -80.14911 13 ft 5 kts 150°
2026-05-09 02:42 26.07341 -80.14865 13 ft 13 kts 146°
2026-05-09 02:42 26.07277 -80.14824 13 ft 0 kts 131°
2026-05-09 02:43 26.07272 -80.14816 13 ft 10 kts 130°
2026-05-09 02:43 26.07230 -80.14733 13 ft 9 kts 99°
2026-05-09 02:43 26.07246 -80.14682 13 ft 5 kts 51°
2026-05-09 02:43 26.07260 -80.14665 13 ft 0 kts 47°
2026-05-09 02:44 26.07261 -80.14665 13 ft 0 kts 47°